Regional Weather Roundup
Issued by NWS

Home | Current Version | Previous Version | Text Only | Print | Product List | Glossary Off
Versions: 1 2 3 4 5 6 7 8 9 10 11 12 13 14 15 16 17 18 19 20 21 22 23 24 25 26 27 28 29 30 31 32 33 34 35 36 37 38 39 40 41 42 43 44 45 46 47 48 49 50

000
ASUS43 KLMK 250802
RWRKY
KENTUCKY REGIONAL WEATHER ROUNDUP
NATIONAL WEATHER SERVICE LOUISVILLE KY
400 AM EDT SAT MAR 25 2017

NOTE "FAIR" INDICATES FEW OR NO CLOUDS BELOW 12,000 FEET
WITH NO SIGNIFICANT WEATHER AND/OR OBSTRUCTIONS TO VISIBILITY.

KYZ001>023-026-027-061>063-070>075-250900-
WESTERN AND SOUTH CENTRAL KENTUCKY

CITY           SKY/WX    TMP DP  RH WIND       PRES   REMARKS
PADUCAH        CLEAR     67  55  65 S15G28    29.92F
HENDERSON      CLOUDY    52  52 100 SE9       29.98F
OWENSBORO      CLOUDY    64  53  67 S10       30.02F
HOPKINSVILLE   CLOUDY    67  54  61 S14       30.02F
BOWLING GREEN  MOCLDY    65  50  58 S9        30.07F
GLASGOW        NOT AVBL
$$

KYZ024-025-028>034-038-045-046-053-250900-
NORTH CENTRAL KENTUCKY

CITY           SKY/WX    TMP DP  RH WIND       PRES   REMARKS
LOUISVILLE/SDF CLOUDY    63  48  58 SE9       30.08F
LOUISVILLE/LOU CLOUDY    64  50  60 SE6       30.09F
FORT KNOX      MOCLDY    61  50  65 SE8       30.07S
$$

KYZ035>037-039>044-047>052-055>060-089>105-250900-
NORTHEAST KENTUCKY

CITY           SKY/WX    TMP DP  RH WIND       PRES   REMARKS
LEXINGTON      PTCLDY    58  47  66 SE8       30.14F
COVINGTON      CLOUDY    59  51  75 S8        30.11F
FRANKFORT      PTCLDY    58  48  69 SE5       30.11F
$$

KYZ054-064>069-076>088-106>120-250900-
SOUTHEAST KENTUCKY

CITY           SKY/WX    TMP DP  RH WIND       PRES   REMARKS
JACKSON        CLOUDY    62  46  55 SE5       30.19S
LONDON         CLOUDY    59  45  59 SE5       30.17F
SOMERSET       NOT AVBL
MIDDLESBORO    PTCLDY    51  48  90 CALM      30.21F
MONTICELLO     PTSUNNY   62  48  60 VRB7      30.16F
$$





USA.gov is the U.S. government's official web portal to all federal, state and local government web resources and services.